Showing default

OPS 9348 (IDSCS 26), 3291

Orbit data source: Space-Track

OPS 9348 (IDSCS 26), 3291 is a payload satellite owned by SAMSO (US) in GEO that was launched on Thu, 13 Jun 1968 UTC via a TITAN IIIC launch vehicle from the Air Force Eastern Test Range (AFETR). Payload-class satellites include a variety of spacecraft equipped with specific instruments for various scientific and technological missions. These include communications satellites like Starlink; space stations such as the ISS; scientific satellites like the Hubble; Earth observation satellites from companies like Planet Labs, Umbra, and HawkEye 360; GPS; miniature CubeSats for education and research; and military/defense satellites.

Not visible in the next 10 days
Identifier
3291, 1968-050H
Orbit
GEO
Country
Flag of USUS
Related business
Manufacturer
Philco-Ford
Mission
Non-operational spacecraft
Bus & Motor
IDCSP, Unknown motor
Mass
45 kg wet, 45 kg dry
Launch date (UTC)
1968-06-13 (58 years ago)
Launch vehicle
TITAN IIIC
Launch site
Air Force Eastern Test Range (AFETR)
Object type
Payload
Rocket body
Debris
Shape & HBR
Unknown
Radar Cross Section
Medium (>0.1 m² and <1 m²)

Expand to show TLE details & history
Last TLE update: 3 days ago

TLE from 3 days ago
0 OPS 9348 (IDSCS 26)
1 03291U 68050H   26092.97114799 -.00000095  00000-0  00000-0 0  9995
2 03291   6.7628  55.5469 0073870 133.0143  27.1394  1.06767328225229
Epoch: 2026-04-02T23:18Z
TLE epoch observation values (Epoch: 2026-04-02T23:18:27.186Z)
Latitude
2.2467°
Longitude
35.30206°
Altitude
33,791.037 km
Speed
3.161 km/s
True Right ascension
14h 24m 54s
True Declination
2° 14' 40"
Sunlit
Object was in daylight at epoch
Visualization orbit readout
Latitude
Unknown
Longitude
Unknown
Altitude
Unknown
Speed
Unknown
Apparent Right ascension
Unknown
Apparent Declination
Unknown
Sunlit
N/A
Visualization observer readout
Local Sidereal Time
19:26:54
Azimuth
Unknown
Elevation
Unknown
Doppler factor
Unknown
Orbital elements
Apogee altitude
34,358.42 km
Perigee altitude
33,760.991 km
Semi-major axis
40,437.843 km
Eccentricity
0.00739
Inclination
6.7628°
RAAN
55.5469°
Arg. of periapsis
133.0143°
True anomaly
27.52873°
Mean anomaly
27.1394°
Eccentric anomaly
27.33374°
Mean motion
0.26691 °/min
Orbital period
1,348.78 mins
BSTAR
0
Loading maneuver chart data...
Computing Atmospheric mass density...
Loading historical data...
Loading historical data...
Loading historical data...
Loading historical data...
Loading historical data...
Loading historical data...
Loading historical data...

Documentation

Showing up to 5 results
|